Weather History for KYNG - December, 2012

Change the Weather History Date:

Monday, December 17, 2012

  Actual Average Record
Temperature  
Mean Temperature 46 °F 30 °F  
Max Temperature 50 °F 36 °F 60 °F (1984)
Min Temperature 41 °F 23 °F -10 °F (1989)
Degree Days  
Heating Degree Days 19 35  
Month to date heating degree days 387 555  
Since 1 July heating degree days 1768 1884  
Cooling Degree Days 0 0  
Month to date cooling degree days 0 0  
Year to date cooling degree days 761 544  
Moisture  
Dew Point 42 °F    
Average Humidity 90    
Maximum Humidity 100    
Minimum Humidity 80    
Precipitation  
Precipitation T in 0.09 in 0.94 in (2001)
Month to date precipitation 2.46 1.69  
Year to date precipitation 42.36 37.61  
Snow  
Snow 0.00 in 0.50 in - ()
Month to date snowfall 0.3 7.9  
Since 1 July snowfall 3.2 12.3  
Snow Depth 0.00 in    
Sea Level Pressure  
Sea Level Pressure 29.67 in    
Wind  
Wind Speed 4 mph (SW)    
Max Wind Speed 13 mph    
Max Gust Speed 15 mph    
Visibility 6 miles    
Events Fog , Rain    
T = Trace of Precipitation, MM = Missing Value Source: NWS Daily Summary

Daily Weather History Graph

Daily Weather History Graph

Search for Another Location

Airport or City:

Trip Planner

Search our weather history database for the weather conditions in past years. The results will help you decide how hot, cold, wet, or windy it might be!

Date:

Astronomy

Dec. 17, 2012 Rise Set
Actual Time 7:42 AM EST 4:55 PM EST
Civil Twilight 7:11 AM EST 5:26 PM EST
Nautical Twilight 6:36 AM EST 6:01 PM EST
Astronomical Twilight 6:03 AM EST 6:34 PM EST
Moon 10:48 AM EST (12/17) 10:18 PM EST (12/17)
Length of Visible Light 10h 14m
Length of Day
9h 12m
Waxing Crescent, 24% of the Moon is Illuminated
Dec 17
Waxing Crescent
Dec 20
First Quarter
Dec 28
Full
Jan 4
Last Quarter
Jan 11
New

Hourly Weather History & Observations

Time (EST) Temp. Windchill Dew Point Humidity Pressure Visibility Wind Dir Wind Speed Gust Speed Precip Events Conditions
12:51 AM 48.9 °F - 46.9 °F 93% 29.71 in 6.0 mi SSW 4.6 mph - 0.00 in   Scattered Clouds
1:51 AM 48.0 °F - 46.0 °F 93% 29.71 in 6.0 mi SSW 4.6 mph - N/A   Scattered Clouds
2:02 AM 46.4 °F 45.2 °F 46.4 °F 100% 29.71 in 1.8 mi SW 3.5 mph - N/A   Scattered Clouds
2:04 AM 46.4 °F 45.2 °F 46.4 °F 100% 29.71 in 6.0 mi SW 3.5 mph - N/A Fog Shallow Fog
2:35 AM 46.4 °F 44.3 °F 44.6 °F 93% 29.72 in 6.0 mi SW 4.6 mph - N/A   Mostly Cloudy
2:51 AM 46.9 °F - 46.0 °F 97% 29.72 in 6.0 mi South 3.5 mph - N/A   Overcast
3:31 AM 46.4 °F 44.3 °F 42.8 °F 87% 29.70 in 8.0 mi SSW 4.6 mph - N/A   Partly Cloudy
3:51 AM 45.0 °F 43.5 °F 43.0 °F 93% 29.71 in 7.0 mi SSW 3.5 mph - N/A   Partly Cloudy
4:51 AM 43.0 °F 38.8 °F 41.0 °F 93% 29.72 in 7.0 mi West 6.9 mph - N/A   Partly Cloudy
5:51 AM 45.0 °F 42.6 °F 43.0 °F 93% 29.73 in 7.0 mi WSW 4.6 mph - N/A   Scattered Clouds
5:54 AM 44.6 °F 41.4 °F 42.8 °F 93% 29.72 in 6.0 mi WSW 5.8 mph - N/A   Overcast
6:42 AM 44.6 °F 41.4 °F 42.8 °F 93% 29.73 in 6.0 mi SW 5.8 mph - N/A   Overcast
6:51 AM 44.1 °F 40.8 °F 42.1 °F 93% 29.75 in 6.0 mi SW 5.8 mph - N/A   Overcast
7:24 AM 42.8 °F 40.1 °F 41.0 °F 93% 29.73 in 6.0 mi WSW 4.6 mph - N/A   Overcast
7:43 AM 42.8 °F 41.1 °F 41.0 °F 93% 29.73 in 5.0 mi WSW 3.5 mph - N/A   Overcast
7:51 AM 43.0 °F 41.3 °F 41.0 °F 93% 29.75 in 5.0 mi SW 3.5 mph - N/A   Overcast
8:51 AM 44.1 °F - 42.1 °F 93% 29.75 in 5.0 mi Calm Calm - N/A   Overcast
9:51 AM 46.0 °F 44.8 °F 42.1 °F 86% 29.75 in 6.0 mi WSW 3.5 mph - N/A   Overcast
10:51 AM 46.0 °F 43.9 °F 41.0 °F 83% 29.75 in 6.0 mi SW 4.6 mph - N/A   Haze
11:51 AM 48.0 °F - 42.1 °F 80% 29.70 in 7.0 mi Calm Calm - N/A   Overcast
12:51 PM 48.0 °F - 42.1 °F 80% 29.67 in 7.0 mi Calm Calm - N/A   Overcast
1:19 PM 48.2 °F - 42.8 °F 82% 29.64 in 7.0 mi Calm Calm - N/A   Overcast
1:51 PM 48.0 °F - 42.1 °F 80% 29.65 in 7.0 mi Calm Calm - N/A   Overcast
2:51 PM 48.0 °F - 42.1 °F 80% 29.62 in 7.0 mi Calm Calm - N/A   Overcast
3:45 PM 46.4 °F 44.3 °F 42.8 °F 87% 29.61 in 6.0 mi ESE 4.6 mph - N/A   Haze
3:51 PM 46.9 °F - 43.0 °F 86% 29.62 in 6.0 mi ESE 3.5 mph - N/A   Overcast
4:11 PM 46.4 °F 44.3 °F 42.8 °F 87% 29.61 in 6.0 mi NE 4.6 mph - N/A   Overcast
4:51 PM 46.9 °F - 43.0 °F 86% 29.61 in 5.0 mi ESE 3.5 mph - 0.00 in Rain Light Rain
7:28 PM 44.6 °F 40.7 °F 42.8 °F 93% 29.57 in 5.0 mi NW 6.9 mph - N/A   Overcast
8:25 PM 42.8 °F 38.0 °F 39.2 °F 87% 29.56 in 8.0 mi NW 8.1 mph - N/A   Overcast
8:51 PM 43.0 °F 38.2 °F 39.0 °F 86% 29.57 in 8.0 mi NNW 8.1 mph - N/A   Overcast
9:51 PM 42.1 °F 39.2 °F 37.9 °F 85% 29.55 in 10.0 mi NE 4.6 mph - N/A   Overcast
10:51 PM 42.1 °F 39.2 °F 37.9 °F 85% 29.54 in 10.0 mi North 4.6 mph - N/A   Overcast
11:06 PM 42.8 °F 41.1 °F 37.4 °F 81% 29.52 in 10.0 mi North 3.5 mph - N/A   Overcast
11:51 PM 41.0 °F - 37.9 °F 89% 29.52 in 8.0 mi Calm Calm - N/A   Overcast